Starlink 31666

operational
NORAD ID: 59572 Int'l Des: 2024-076 Owner: SPXS Country: US Constellation: starlink
LEOCIRCULAR

Starlink 31666について

説明を読み込み中...

リアルタイム位置

3D地球を読み込み中...

次回通過

高度履歴

Altitude vs Time

uPlot chart will show altitude changes over time

軌道要素

1 59572U 24076J 25260.02769597 -.00001614 00000-0 -49178-4 0 9994
2 59572 42.9993 262.7803 0000516 279.3208 80.7585 15.27570132 80023
Epoch: Sep 17, 2025 • Age: 24 hours

現在のステータス

高度 485.7 km
速度 7.63 km/s
衛星直下点 38.79°N, 10.44°E
打ち上げ日 Apr 23, 2024
運用期間 1.4 years
タイプ internet

技術仕様

分類 Payload
質量 730.00 kg
乾燥質量 700.00 kg
総質量 730.00 kg
長さ 0.30 m
直径 4.10 m
スパン 29.00 m
形状 Box + pan
製造者 SPXS
バスタイプ Starlink V2M
フェーズステータス In Orbit
所有者/国 SPXS/US

大規模コンステレーション

Loading constellations...